Regional Weather Roundup
Issued by NWS

Home | Current Version | Previous Version | Graphics & Text | Print | Product List | Glossary On
Versions: 1 2 3 4 5 6 7 8 9 10 11 12 13 14 15 16 17 18 19 20 21 22 23 24 25 26 27 28 29 30 31 32 33 34 35 36 37 38 39 40 41 42 43 44 45 46 47 48 49 50
000
ASUS43 KLSX 300059
RWRMO

WEATHER SUMMARY FOR MISSOURI
NATIONAL WEATHER SERVICE SPRINGFIELD MO
800 PM CDT WED JUL 29 2015

NOTE: "FAIR" INDICATES FEW OR NO CLOUDS BELOW 12,000 FEET WITH NO
       SIGNIFICANT WEATHER AND/OR OBSTRUCTIONS TO VISIBILITY.
       CURRENT SKY AND/OR WEATHER CONDITIONS ARE NOT AVAILABLE FOR
       CHILLICOTHE AND FARMINGTON.

MOZ001>031-035>038-043-044-053-054-300200-
...NORTHERN AND WESTERN MISSOURI...

CITY           SKY/WX    TMP DP  RH WIND       PRES   REMARKS
KANSAS CTY INT PTCLDY    79  69  71 N3        30.14S
KANSAS C DTWN  CLEAR     82  66  58 N6        30.13R
LEE`S SUMMIT   PTCLDY    80  65  59 N7        30.15R
ST JOSEPH      PTCLDY    80  67  64 CALM      30.13F
CHILLICOTHE      N/A     78  70  76 CALM      30.14R
KIRKSVILLE     CLEAR     76  66  71 W3        30.13R

$$
MOZ066>068-077>081-088>096-101>105-300200-
...SOUTHWEST MISSOURI...

CITY           SKY/WX    TMP DP  RH WIND       PRES   REMARKS
SPRINGFIELD    CLEAR     82  70  66 N8        30.09S
JOPLIN         PTCLDY    83  70  64 NE7       30.09R

$$
MOZ032>034-039>042-045>050-055>058-069>072-300200-
...CENTRAL MISSOURI...

CITY           SKY/WX    TMP DP  RH WIND       PRES   REMARKS
COLUMBIA       CLEAR     78  64  61 N8        30.12R
JEFFERSON CITY CLEAR     83  64  52 N5        30.09R
ROLLA          CLEAR     78  64  61 N5        30.10R
SEDALIA        CLEAR     80  64  58 NE5       30.14R
OSAGE BEACH    CLEAR     79  66  65 N3        30.11R

$$
MOZ051-052-059>065-300200-
...EAST CENTRAL MISSOURI...

CITY           SKY/WX    TMP DP  RH WIND       PRES   REMARKS
ST LOUIS INTL  NOT AVBL
SPIRIT OF STL  CLEAR     82  65  56 N6        30.06R
ST CHARLES     CLEAR     80  65  59 N7        30.06R

$$
MOZ072>076-082>087-097>100-106>115-300200-
...SOUTH CENTRAL AND SOUTHEAST MISSOURI...

CITY           SKY/WX    TMP DP  RH WIND       PRES   REMARKS
CAPE GIRARDEAU NOT AVBL
FARMINGTON     CLEAR     82  70  65 N7        30.11R
POPLAR BLUFF   PTCLDY    85  74  69 N9        30.00R HX  92
WEST PLAINS    MOCLDY    81  71  71 N6        30.10R

$$


USA.gov is the U.S. government's official web portal to all federal, state and local government web resources and services.